Fort Benning, AL

10:00 AM CST on December 17, 2017 (GMT -0600)
Lawson Army Air Field

Weather History for KLSF - March, 2014

Change the Weather History Date:

Tuesday, March 11, 2014

  Actual Average Record
Temperature  
Mean Temperature 60 °F -  
Max Temperature 79 °F 66 °F 82 °F (2006)
Min Temperature 42 °F 41 °F 23 °F (1998)
Degree Days  
Heating Degree Days 4    
Growing Degree Days 10 (Base 50)    
Moisture  
Dew Point 48 °F    
Average Humidity 84    
Maximum Humidity 100    
Minimum Humidity 41    
Precipitation  
Precipitation 0.02 in - - ()
Sea Level Pressure  
Sea Level Pressure 29.86 in    
Wind  
Wind Speed 3 mph (SE)    
Max Wind Speed 7 mph    
Max Gust Speed -    
Visibility 6 miles    
Events Rain    
Averages and records for this station are not official NWS values.
T = Trace of Precipitation, MM = Missing Value Source: NWS Daily Summary

Daily Weather History Graph

Daily Weather History Graph

Search for Another Location

Airport or City:

Trip Planner

Search our weather history database for the weather conditions in past years. The results will help you decide how hot, cold, wet, or windy it might be!

Date:

Astronomy

Mar. 11, 2014 Rise Set
Actual Time 7:55 AM EDT 7:45 PM EDT
Civil Twilight 7:30 AM EDT 8:09 PM EDT
Nautical Twilight 7:02 AM EDT 8:38 PM EDT
Astronomical Twilight 6:33 AM EDT 9:06 PM EDT
Moon 3:32 PM EDT (3/11) 4:36 AM EDT (3/11)
Length of Visible Light 12h 38m
Length of Day
11h 49m
Waxing Gibbous, 78% of the Moon is Illuminated
Mar 11
Waxing Gibbous
Mar 16
Full
Mar 23
Last Quarter
Mar 30
New
Apr 7
First Quarter

Hourly Weather History & Observations

Time (EDT) Temp. Windchill Dew Point Humidity Pressure Visibility Wind Dir Wind Speed Gust Speed Precip Events Conditions
12:58 AM 48.7 °F - 47.7 °F 96% 29.96 in 10.0 mi ESE 2.3 mph - N/A   Clear
1:48 AM 46.4 °F 45.2 °F 46.4 °F 100% 29.94 in 9.0 mi SE 3.5 mph - N/A   Clear
1:58 AM 46.2 °F 42.7 °F 45.1 °F 96% 29.95 in 10.0 mi SE 6.9 mph - N/A   Clear
2:58 AM 47.3 °F - 46.6 °F 97% 29.94 in 9.0 mi SSE 1.2 mph - N/A   Clear
3:08 AM 48.2 °F - 46.4 °F 93% 29.92 in 10.0 mi SE 2.3 mph - N/A   Clear
3:18 AM 46.4 °F - 46.4 °F 100% 29.91 in 5.0 mi SSE 2.3 mph - N/A   Clear
3:23 AM 46.4 °F - 46.4 °F 100% 29.91 in 2.0 mi SSE 2.3 mph - N/A   Clear
3:28 AM 46.4 °F - 46.4 °F 100% 29.91 in 2.5 mi SSE 2.3 mph - N/A   Clear
3:33 AM 46.4 °F - 46.4 °F 100% 29.91 in 4.0 mi SE 2.3 mph - N/A   Clear
3:48 AM 46.4 °F - 46.4 °F 100% 29.90 in 2.5 mi SE 2.3 mph - N/A   Clear
3:53 AM 46.4 °F 45.2 °F 46.4 °F 100% 29.91 in 3.0 mi SSE 3.5 mph - N/A   Clear
3:58 AM 46.6 °F - 46.2 °F 99% 29.91 in 2.0 mi SE 3.5 mph - N/A   Clear
4:03 AM 46.4 °F 45.2 °F 44.6 °F 93% 29.90 in 2.0 mi SE 3.5 mph - N/A   Clear
4:08 AM 46.4 °F 45.2 °F 44.6 °F 93% 29.90 in 8.0 mi SE 3.5 mph - N/A   Clear
4:13 AM 44.6 °F - 44.6 °F 100% 29.90 in 10.0 mi SE 2.3 mph - N/A   Clear
4:18 AM 44.6 °F - 44.6 °F 100% 29.90 in 9.0 mi SE 2.3 mph - N/A   Clear
4:28 AM 44.6 °F - 44.6 °F 100% 29.90 in 3.0 mi SE 1.2 mph - N/A   Clear
4:33 AM 46.4 °F - 44.6 °F 93% 29.90 in 1.8 mi SSE 1.2 mph - N/A   Clear
4:38 AM 44.6 °F - 44.6 °F 100% 29.90 in 1.5 mi ESE 1.2 mph - N/A   Clear
4:43 AM 44.6 °F - 44.6 °F 100% 29.90 in 1.2 mi Calm Calm - N/A   Clear
4:48 AM 44.6 °F - 44.6 °F 100% 29.90 in 1.5 mi Calm Calm - N/A   Clear
4:53 AM 44.6 °F - 44.6 °F 100% 29.90 in 1.8 mi Calm Calm - N/A   Clear
4:58 AM 44.6 °F - 44.6 °F 100% 29.91 in 0.8 mi ESE 1.2 mph - N/A   Clear
5:03 AM 44.6 °F - 44.6 °F 100% 29.90 in 1.0 mi ESE 1.2 mph - N/A   Clear
5:08 AM 44.6 °F - 44.6 °F 100% 29.90 in 1.8 mi SE 1.2 mph - N/A   Clear
5:13 AM 44.6 °F - 44.6 °F 100% 29.90 in 0.8 mi ESE 2.3 mph - N/A   Clear
5:18 AM 44.6 °F - 44.6 °F 100% 29.90 in 0.8 mi SE 2.3 mph - N/A   Clear
5:23 AM 44.6 °F 43.1 °F 44.6 °F 100% 29.90 in 1.8 mi SSE 3.5 mph - N/A   Clear
5:28 AM 46.4 °F - 44.6 °F 93% 29.90 in 4.0 mi SSE 1.2 mph - N/A   Clear
5:38 AM 44.6 °F - 44.6 °F 100% 29.90 in 5.0 mi SE 2.3 mph - N/A   Clear
5:58 AM 43.7 °F - 42.8 °F 97% 29.90 in 5.0 mi ENE 1.2 mph - N/A   Clear
6:03 AM 44.6 °F - 42.8 °F 93% 29.89 in 4.0 mi Calm Calm - N/A   Clear
6:08 AM 44.6 °F - 44.6 °F 100% 29.89 in 6.0 mi Calm Calm - N/A   Clear
6:13 AM 44.6 °F - 44.6 °F 100% 29.89 in 5.0 mi Calm Calm - N/A   Clear
6:38 AM 44.6 °F - 44.6 °F 100% 29.90 in 1.8 mi SSE 2.3 mph - N/A   Clear
6:43 AM 44.6 °F - 42.8 °F 93% 29.90 in 1.0 mi SE 2.3 mph - N/A   Clear
6:48 AM 42.8 °F - 42.8 °F 100% 29.90 in 0.8 mi SE 2.3 mph - N/A   Clear
6:53 AM 44.6 °F 42.2 °F 42.8 °F 93% 29.90 in 1.2 mi ESE 4.6 mph - N/A   Clear
6:58 AM 43.7 °F 41.1 °F 43.3 °F 99% 29.91 in 5.0 mi SE 4.6 mph - N/A   Clear
7:03 AM 42.8 °F 40.1 °F 41.0 °F 93% 29.90 in 5.0 mi SE 4.6 mph - N/A   Clear
7:08 AM 42.8 °F - 42.8 °F 100% 29.90 in 5.0 mi SE 2.3 mph - N/A   Clear
7:28 AM 42.8 °F - 42.8 °F 100% 29.90 in 6.0 mi Calm Calm - N/A   Clear
7:43 AM 42.8 °F - 42.8 °F 100% 29.90 in 4.0 mi Calm Calm - N/A   Clear
7:48 AM 42.8 °F 41.1 °F 42.8 °F 100% 29.89 in 1.8 mi SE 3.5 mph - N/A   Clear
7:53 AM 42.8 °F - 42.8 °F 100% 29.90 in 1.2 mi SSE 2.3 mph - N/A   Clear
7:58 AM 42.8 °F 41.1 °F 42.8 °F 100% 29.91 in 1.8 mi SE 3.5 mph - N/A   Clear
8:03 AM 42.8 °F 40.1 °F 42.8 °F 100% 29.90 in 3.0 mi ESE 4.6 mph - N/A   Clear
8:18 AM 42.8 °F - 42.8 °F 100% 29.90 in 3.0 mi Calm Calm - N/A   Partly Cloudy
8:58 AM 47.3 °F - 46.0 °F 95% 29.92 in 7.0 mi East 2.3 mph - N/A   Clear
9:58 AM 55.4 °F - 51.4 °F 87% 29.93 in 10.0 mi SE 2.3 mph - N/A   Clear
10:58 AM 64.2 °F - 54.0 °F 69% 29.93 in 10.0 mi Calm Calm - N/A   Clear
11:58 AM 69.1 °F - 55.0 °F 61% 29.91 in 10.0 mi NE 2.3 mph - N/A   Clear
12:58 PM 74.3 °F - 54.5 °F 50% 29.90 in 10.0 mi Variable 2.3 mph - N/A   Clear
1:58 PM 77.7 °F - 54.5 °F 45% 29.86 in 10.0 mi WSW 5.8 mph - N/A   Clear
2:58 PM 79.3 °F - 53.8 °F 41% 29.82 in 10.0 mi Variable 6.9 mph - N/A   Partly Cloudy
3:58 PM 78.6 °F - 55.0 °F 44% 29.79 in 10.0 mi Variable 3.5 mph - N/A   Partly Cloudy
4:58 PM 77.7 °F - 54.7 °F 45% 29.77 in 10.0 mi SSE 5.8 mph - N/A   Clear
5:58 PM 77.9 °F - 52.5 °F 41% 29.75 in 10.0 mi South 6.9 mph - N/A   Mostly Cloudy
6:58 PM 75.9 °F - 53.6 °F 46% 29.75 in 9.0 mi South 4.6 mph - N/A   Mostly Cloudy
7:58 PM 72.5 °F - 53.8 °F 52% 29.76 in 10.0 mi SSE 4.6 mph - N/A   Overcast
8:08 PM 73.4 °F - 53.6 °F 50% 29.76 in 10.0 mi SSE 4.6 mph - N/A   Overcast
8:23 PM 73.4 °F - 53.6 °F 50% 29.76 in 9.0 mi Variable 6.9 mph - N/A   Mostly Cloudy
8:58 PM 72.5 °F - 53.2 °F 51% 29.77 in 10.0 mi South 5.8 mph - N/A   Overcast
9:18 PM 71.6 °F - 53.6 °F 53% 29.76 in 10.0 mi South 6.9 mph - N/A   Mostly Cloudy
9:28 PM 71.6 °F - 53.6 °F 53% 29.76 in 10.0 mi Variable 5.8 mph - N/A   Mostly Cloudy
9:38 PM 71.6 °F - 53.6 °F 53% 29.76 in 9.0 mi South 5.8 mph - N/A   Mostly Cloudy
9:58 PM 71.1 °F - 54.3 °F 55% 29.77 in 10.0 mi Variable 4.6 mph - N/A   Mostly Cloudy
10:08 PM 71.6 °F - 53.6 °F 53% 29.76 in 10.0 mi South 4.6 mph - N/A   Mostly Cloudy
10:09 PM 69.8 °F - 53.6 °F 56% 29.76 in 9.0 mi South 4.6 mph - N/A Rain Light Rain
10:32 PM 68.0 °F - 55.4 °F 64% 29.76 in 10.0 mi Variable 4.6 mph - N/A   Mostly Cloudy
10:39 PM 68.0 °F - 57.2 °F 68% 29.76 in 10.0 mi Variable 2.3 mph - N/A Rain Light Rain
10:53 PM 68.0 °F - 57.2 °F 68% 29.77 in 10.0 mi Calm Calm - N/A   Overcast
10:58 PM 66.9 °F - 57.4 °F 71% 29.78 in 10.0 mi Calm Calm - 0.00 in   Overcast
10:59 PM 66.2 °F - 57.2 °F 73% 29.77 in 10.0 mi Calm Calm - N/A Rain Light Rain
11:09 PM 66.2 °F - 59.0 °F 78% 29.77 in 6.0 mi SSW 1.2 mph - N/A Rain Light Rain
11:24 PM 62.6 °F - 60.8 °F 94% 29.77 in 10.0 mi SE 1.2 mph - N/A Rain Light Rain
11:29 PM 62.6 °F - 60.8 °F 94% 29.77 in 9.0 mi Variable 1.2 mph - N/A Rain Light Rain
11:58 PM 60.8 °F - 60.8 °F 100% 29.77 in 6.0 mi SSE 1.2 mph - 0.02 in Rain Light Rain